Weather Roundup
Issued by NWS Corpus Christi, TX

Home | Current Version | Previous Version | Text Only | Print | Product List | Glossary On
Versions: 1 2 3 4 5 6 7 8 9 10 11 12 13 14 15 16 17 18 19 20 21 22 23 24 25 26 27 28 29 30 31 32 33 34 35 36 37 38 39 40 41 42 43 44 45 46 47 48 49 50
000
ASUS44 KCRP 190310
HRRCRP

SOUTH TEXAS REGIONAL WEATHER ROUNDUP
NATIONAL WEATHER SERVICE CORPUS CHRISTI TX
900 PM CST THU DEC 18 2014


TXZ229>244-190400-
...CORPUS CHRISTI AREA OBSERVATIONS...

CITY           SKY/WX    TMP DP  RH WIND       PRES   REMARKS
CORPUS CHRISTI CLOUDY    69  68  96 S9        30.00R FOG
NAS CORPUS CHR CLOUDY    70  68  93 SE13      29.99F
ROCKPORT       CLOUDY    68  66  93 E5        30.00S
KINGSVILLE NAS LGT RAIN  70  70 100 SE8       29.99S FOG
ALICE          CLOUDY    68  66  93 CALM      29.99S FOG
FALFURRIAS     CLOUDY    68  66  93 CALM      29.99R
$$

...VICTORIA AREA OBSERVATIONS...

CITY           SKY/WX    TMP DP  RH WIND       PRES   REMARKS
VICTORIA       LGT RAIN  64  61  90 NE6       30.02F FOG
BEEVILLE       CLOUDY    64  63  99 E6        30.00S
PLEASANTON     HVY RAIN  60  57  89 CALM      30.04R
SAN ANTONIO    CLOUDY    59  56  89 NE7       30.05R FOG
$$

...LAREDO AREA OBSERVATIONS...

CITY           SKY/WX    TMP DP  RH WIND       PRES   REMARKS
LAREDO         FOG       63  63 100 CALM      30.03  VSB 3/4
COTULLA        CLOUDY    63  61  93 E9        30.01S
DEL RIO        CLOUDY    60  54  80 NW3       30.02R
MCALLEN        LGT RAIN  63  62  97 W3        30.01S FOG
HEBBRONVILLE   CLOUDY    64  63  95 CALM      30.00F
$$

...OTHER TEXAS OBSERVATIONS...

CITY           SKY/WX    TMP DP  RH WIND       PRES   REMARKS
BROWNSVILLE    CLOUDY    72  67  84 SE7       30.00R
HOUSTON        CLOUDY    62  58  86 E9        30.07R
COL. STATION   CLOUDY    57  55  93 NE13      30.09R FOG
AUSTIN         DRIZZLE   54  52  93 NE14      30.08S FOG
WACO           CLOUDY    49  46  90 NE12      30.14S
FORT WORTH     CLOUDY    47  43  86 NE8       30.16S
WICHITA FALLS  CLOUDY    44  42  93 N12       30.16F
LUBBOCK        CLOUDY    38  35  89 E12       30.11R WCI  30
EL PASO        LGT RAIN  48  40  73 VRB7      30.13R
$$

...MARINE OBSERVATIONS...

STATION/POSITION TIME  SKY/WX   TEMP    WIND        PRES    VSBY  WAVE   SWELL
                                AIR SEA DIR/SP/G                  HT/PER HT/PER
                 (UTC)          (F)     (DEG/KT/KT) (MB)    (MI)  (FT/S) (FT/S)
PORT ARANSAS     0300            69 66  150/ 12/ 13 1016.1R
BUOY 90 E PORT A 0300            72 72  170/ 10/ 12 1017.1R         4/ 6   3/ 6
BUOY 45 SE BAFFI 0300            72 72  150/ 10/ 12 1016.2R         4/ 6   3/ 6
BUOY 200 E PT IS 0300            74 73  150/ 12/ 14 1017.5R         3/ 6   2/ 6
BUOY 15 E GALVES 0300            63 65   60/ 17/ 19 1017.4R         3/ 6
$$



USA.gov is the U.S. government's official web portal to all federal, state and local government web resources and services.